MST,Max TemperatureF,Mean TemperatureF,Min TemperatureF,Max Dew PointF,MeanDew PointF,Min DewpointF,Max Humidity, Mean Humidity, Min Humidity, Max Sea Level PressureIn, Mean Sea Level PressureIn, Min Sea Level PressureIn, Max VisibilityMiles, Mean VisibilityMiles, Min VisibilityMiles, Max Wind SpeedMPH, Mean Wind SpeedMPH, Max Gust SpeedMPH,PrecipitationIn, CloudCover, Events, WindDirDegrees
2012-12-1,55,48,42,35,29,24,76,47,30,29.74,29.69,29.64,10,10,10,41,20,53,0.00,4,Rain,235
2012-12-2,57,46,35,34,31,24,89,57,35,29.77,29.45,29.18,10,8,2,50,28,64,0.23,5,Rain-Snow,245
2012-12-3,44,38,33,21,19,17,59,45,37,30.14,29.99,29.76,10,10,10,45,27,54,0.00,1,,237
2012-12-4,50,44,37,31,24,17,52,44,38,30.16,29.99,29.86,10,10,10,46,24,61,0.00,3,,223
2012-12-5,57,48,39,34,29,20,61,47,36,29.94,29.79,29.68,10,10,10,36,26,52,0.00,5,Rain,237
2012-12-6,37,32,26,27,24,18,93,79,46,30.02,29.93,29.87,10,4,0,16,9,18,0.15,7,Fog-Snow,269
2012-12-7,34,30,25,25,20,15,88,67,48,29.99,29.88,29.62,10,9,2,33,12,45,0.00,6,Snow,246
2012-12-8,34,23,12,25,13,5,93,72,51,30.33,29.88,29.60,10,4,0,34,19,46,0.04,7,Fog-Snow,281
2012-12-9,28,12,-5,12,3,-10,85,66,48,30.50,30.27,29.92,10,8,2,34,11,53,0.00,5,Snow,278
2012-12-10,32,28,24,23,19,16,80,69,56,30.06,29.95,29.83,10,6,1,36,24,50,0.00,8,Snow,248
2012-12-11,41,36,30,25,22,19,66,58,47,29.95,29.64,29.50,10,6,1,51,34,72,0.13,4,Snow,227
2012-12-12,39,32,26,32,28,21,92,80,55,29.89,29.64,29.51,10,7,0,34,15,43,0.07,8,Fog-Snow,266
2012-12-13,33,24,16,23,17,11,85,77,64,30.00,29.92,29.84,10,10,10,14,11,,0.00,0,,314
2012-12-14,35,27,19,29,24,14,93,80,70,29.83,29.73,29.64,10,7,1,16,8,,0.03,6,Snow,290
2012-12-15,30,27,24,26,20,14,89,73,58,29.87,29.78,29.67,10,9,2,23,7,22,0.00,7,Snow,254
2012-12-16,32,30,27,21,13,7,69,52,38,29.78,29.69,29.60,10,10,9,34,21,45,0.02,2,,244
2012-12-17,39,34,28,32,25,12,92,69,49,29.62,29.42,29.34,10,8,1,37,22,52,0.00,7,Snow,250
2012-12-18,28,22,15,12,5,3,59,46,37,29.98,29.81,29.63,10,10,10,31,21,38,0.00,2,,252
2012-12-19,21,16,12,6,2,0,59,48,42,30.18,30.07,29.91,10,10,10,48,20,66,0.05,1,,233
2012-12-20,33,27,21,10,7,5,51,42,31,30.17,30.10,29.94,10,10,10,56,43,81,0.00,0,,218
2012-12-21,41,36,28,11,9,6,47,32,28,30.01,29.96,29.91,10,10,10,43,31,53,0.00,0,,223
2012-12-22,39,27,15,16,12,7,88,56,26,29.99,29.90,29.83,10,10,8,23,14,33,0.00,1,,108
2012-12-23,39,27,15,27,17,12,88,55,34,30.06,29.89,29.71,10,9,2,29,17,41,0.00,4,Snow,236
2012-12-24,27,15,3,15,4,-1,85,79,61,30.41,30.03,29.78,10,3,0,23,16,25,0.00,8,Snow,87
2012-12-25,15,4,-8,6,-1,-12,83,78,68,30.47,30.28,30.09,10,9,3,13,4,,0.05,6,Snow,85
2012-12-26,17,12,7,10,6,2,84,74,65,30.05,29.94,29.87,10,10,10,12,4,,0.00,8,,85
2012-12-27,27,22,16,18,15,10,86,75,63,30.02,29.97,29.82,10,10,7,15,6,18,0.00,6,Snow,277
2012-12-28,30,26,23,18,14,8,69,57,47,30.15,30.08,29.99,10,10,10,32,19,45,0.00,4,,254
2012-12-29,30,23,16,10,8,5,65,53,43,30.16,30.09,29.91,10,10,10,36,25,53,0.00,1,,255
2012-12-30,27,20,14,15,11,4,78,67,56,30.19,30.15,30.08,10,10,8,17,9,,0.00,4,,280
2012-12-31,25,16,6,13,8,1,80,62,51,30.26,30.21,30.16,10,10,10,25,14,23,0.00,4,,270